This is the latest recevied weather packets stored in our database for station/object W4CKA. If no packets are shown the sender has not sent any weather packets the latest 10 day(s).
| Time | Temp. | Humidity | Pressure | Rain* | Wind** | Luminosity | Snow |
|---|---|---|---|---|---|---|---|
| 1777960703 | 9.44° C | 95% | 1055.4 hPa | 0 mm | - | 0 W/m² | - |
| 1777960103 | 9.44° C | 94% | 1055.4 hPa | 0 mm | - | 0 W/m² | - |
| 1777959498 | 9.44° C | 93% | 1055.3 hPa | 0 mm | - | 0 W/m² | - |
| 1777958897 | 10° C | 95% | 1055.1 hPa | 0 mm | - | 0 W/m² | - |
| 1777958296 | 9.44° C | 94% | 1055.1 hPa | 0 mm | - | 0 W/m² | - |
| 1777957692 | 10° C | 92% | 1055.4 hPa | 0 mm | - | 0 W/m² | - |
| 1777957092 | 10.56° C | 92% | 1055.1 hPa | 0 mm | - | 0 W/m² | - |
| 1777956486 | 10.56° C | 92% | 1055.2 hPa | 0 mm | - | 0 W/m² | - |
| 1777955885 | 10.56° C | 91% | 1055 hPa | 0 mm | - | 0 W/m² | - |
| 1777955284 | 11.11° C | 91% | 1055.3 hPa | 0 mm | - | 0 W/m² | - |
| 1777954683 | 11.11° C | 90% | 1055 hPa | 0 mm | - | 0 W/m² | - |
| 1777954083 | 10.56° C | 91% | 1054.9 hPa | 0 mm | - | 0 W/m² | - |
| 1777953483 | 11.11° C | 90% | 1055 hPa | 0 mm | - | 0 W/m² | - |
| 1777952882 | 10.56° C | 89% | 1055 hPa | 0 mm | - | 0 W/m² | - |
| 1777952282 | 11.67° C | 86% | 1054.8 hPa | 0 mm | - | 0 W/m² | - |
| 1777951677 | 12.22° C | 85% | 1054.7 hPa | 0 mm | - | 0 W/m² | - |
| 1777951076 | 12.22° C | 84% | 1054.8 hPa | 0 mm | - | 0 W/m² | - |
| 1777950476 | 12.78° C | 83% | 1055 hPa | 0 mm | - | 0 W/m² | - |
| 1777949873 | 12.78° C | 83% | 1055.1 hPa | 0 mm | - | 0 W/m² | - |
| 1777949269 | 12.78° C | 83% | 1055.1 hPa | 0 mm | - | 0 W/m² | - |
| 1777948669 | 12.78° C | 82% | 1055.2 hPa | 0 mm | - | 0 W/m² | - |
| 1777948069 | 13.89° C | 78% | 1055.1 hPa | 0 mm | - | 0 W/m² | - |
| 1777947468 | 13.89° C | 80% | 1055.1 hPa | 0 mm | - | 0 W/m² | - |
| 1777946867 | 14.44° C | 76% | 1054.8 hPa | 0 mm | - | 0 W/m² | - |
| 1777946266 | 14.44° C | 77% | 1055 hPa | 0 mm | - | 0 W/m² | - |
* Rain latest hour (hover to see other rain measurements)
** Current wind speed in m/s (hover to see current wind gust speed)